Location: *
(28.3744°N, 81.5492°W)
Time: 03:42:10
(UTC+00:00)

Cosmos 1153 Rocket - Pass Details

Date: 15 June 2025
Orbit: 952 x 1006 km, 82.9° (Epoch: 11 July)

Event Time Altitude Azimuth Distance (km) Brightness Sun altitude
Rises 02:39:40 0° 352° (N) 3,627 8.3 -24.5°
Reaches altitude 10° 02:42:10 10° 351° (N) 2,680 7.5 -24.9°
Maximum altitude 02:48:16 77° 267° (W) 980 4.5 -25.7°
Enters shadow 02:49:57 50° 193° (SSW) 1,197 4.7 -26.0°
